Location: Caltech
(34.1382°N, 118.1253°W)
Time: 13:13:19
(UTC-07:00)

Saudisat 1A - Visible Passes

Search period start: 25 April 2018 00:00
Search period end: 05 May 2018 00:00
Orbit: 590 x 601 km, 64.6° (Epoch: 25 April)

Date Brightness Start Highest point End Pass type
(mag) Time Alt. Az. Time Alt. Az. Time Alt. Az.
02 May 10.9 23:16:28 10° N 23:17:04 12° N 23:17:04 12° N visible
03 May 10.8 23:25:36 10° N 23:26:29 15° N 23:26:29 15° N visible
04 May 10.8 23:35:04 10° NNW 23:35:55 15° NNW 23:35:55 15° NNW visible
